[[{"header":{"parameterUnit":"m.s-1","parameterCategory":1,"la1":30.2992,"la2":30.254,"lo1":-89.0895,"lo2":-89.0443,"dy":0.0025,"dx":0.0025,"nx":19,"ny":19,"refTime":"2026-03-17T03:00:00:Z","depth":0,"parameterNumber":2,"parameterNumberName":"U-component_of_WINDS"},"data":[0,0,0,-1.5673,-1.5676,-1.58,-1.5801,-1.5956,-1.5957,0,0,0,0,0,0,0,0,0,0,0,-1.5634,-1.5635,-1.5673,-1.5676,-1.58,-1.5801,-1.5955,-1.5957,0,0,0,0,0,0,0,0,0,0,0,-1.5633,-1.5635,-1.5636,-1.5676,-1.58,-1.5801,-1.5955,-1.5863,0,0,0,0,0,0,0,0,0,0,-1.5742,-1.5704,-1.5634,-1.5636,-1.5677,-1.58,-1.5801,-1.5858,-1.5868,-1.5897,0,-1.5923,0,-1.5942,-1.5967,-1.5967,0,0,0,-1.5678,-1.5696,-1.5731,-1.5636,-1.5678,-1.58,-1.5744,-1.5864,-1.5875,-1.5911,-1.5925,-1.5931,-1.5945,-1.5968,-1.5969,-1.6131,-1.6132,0,0,-1.5671,-1.5655,-1.5723,-1.5739,-1.5719,-1.574,-1.5748,-1.5871,-1.5885,-1.5926,-1.5935,-1.5947,-1.5969,-1.597,-1.613,-1.6131,0,0,0,-1.565,-1.565,-1.5683,-1.5732,-1.5755,-1.5744,-1.5753,-1.588,-1.5892,-1.5937,-1.5949,-1.597,-1.5972,-1.613,-1.6131,-1.6148,0,0,0,-1.5646,-1.5638,-1.568,-1.5672,-1.5753,-1.5819,-1.5759,-1.5883,-1.5898,-1.5948,-1.597,-1.5973,-1.6129,-1.613,-1.6146,-1.6159,0,0,0,-1.5627,-1.5636,-1.5653,-1.567,-1.5723,-1.5817,-1.5837,-1.5887,-1.5906,-1.5968,-1.5974,-1.6128,-1.613,-1.6145,-1.6156,-1.6197,0,0,0,-1.5602,-1.5668,-1.5653,-1.5732,-1.5722,-1.5828,-1.5836,-1.5915,-1.5971,-1.5971,-1.6129,-1.6131,-1.6144,-1.6155,-1.6195,-1.6227,-1.624,0,0,-1.5677,-1.5676,-1.5724,-1.5714,-1.5818,-1.581,-1.5917,-1.5982,-1.6003,-1.6087,-1.6091,-1.6147,-1.6156,-1.6196,-1.6316,-1.6325,0,0,0,-1.5742,-1.5776,-1.5807,-1.5859,-1.591,-1.5955,-1.6006,-1.603,-1.6103,-1.6043,-1.6173,-1.6179,-1.6204,-1.622,-1.6228,-1.6249,-1.6138,-1.6137,-1.6137,-1.5826,-1.5848,-1.5928,-1.5964,-1.6014,-1.6066,-1.6108,-1.6149,-1.6158,-1.6188,-1.6213,-1.6283,-1.6301,-1.6308,-1.6329,-1.6233,-1.6233,-1.6233,-1.6233,-1.5937,-1.5988,-1.5996,-1.6076,-1.6099,-1.6167,-1.6218,-1.6222,-1.6288,-1.6266,-1.6288,-1.6262,-1.6317,-1.6338,-1.6234,-1.6234,-1.6234,-1.6234,-1.6234,-1.5993,-1.6022,-1.605,-1.6126,-1.6182,-1.6217,-1.628,-1.6299,-1.6317,-1.6339,-1.6367,-1.6367,-1.6368,-1.6351,-1.6351,-1.6352,-1.6352,-1.6352,-1.6352,-1.6041,-1.6072,-1.6122,-1.6182,-1.6217,-1.6265,-1.6317,-1.6352,-1.6396,-1.6405,-1.6405,-1.6409,-1.6319,-1.6295,-1.6356,-1.6355,-1.6355,-1.6354,-1.6354,-1.6144,-1.6123,-1.6201,-1.6236,-1.6307,-1.6361,-1.6384,-1.6454,-1.6486,-1.6516,-1.6516,-1.6446,-1.6447,-1.6441,-1.6421,-1.6511,-1.6511,-1.6511,-1.6511,-1.6191,-1.6194,-1.6277,-1.6331,-1.6387,-1.6415,-1.6502,-1.6543,-1.6581,-1.6602,-1.6592,-1.6568,-1.6561,-1.6566,-1.6557,-1.6539,-1.6657,-1.6657,-1.6657,-1.6256,-1.6264,-1.6334,-1.6371,-1.6428,-1.6476,-1.6557,-1.662,-1.666,-1.6664,-1.6619,-1.6613,-1.6574,-1.6561,-1.6563,-1.6549,-1.6516,0,0]},{"header":{"parameterUnit":"m.s-1","parameterCategory":1,"la1":30.2992,"la2":30.254,"lo1":-89.0895,"lo2":-89.0443,"dy":0.0025,"dx":0.0025,"nx":19,"ny":19,"refTime":"2026-03-17T03:00:00:Z","depth":0,"parameterNumber":3,"parameterNumberName":"V-component_of_WINDS"},"data":[0,0,0,-1.5632,-1.5633,-1.5672,-1.5672,-1.572,-1.5721,0,0,0,0,0,0,0,0,0,0,0,-1.5618,-1.5618,-1.5632,-1.5633,-1.5672,-1.5672,-1.572,-1.5721,0,0,0,0,0,0,0,0,0,0,0,-1.5618,-1.5618,-1.5618,-1.5633,-1.5672,-1.5672,-1.572,-1.5692,0,0,0,0,0,0,0,0,0,0,-1.5654,-1.5639,-1.5618,-1.5618,-1.5633,-1.5672,-1.5672,-1.569,-1.5693,-1.5701,0,-1.5707,0,-1.5715,-1.5724,-1.5724,0,0,0,-1.5635,-1.5636,-1.5648,-1.5618,-1.5633,-1.5672,-1.5655,-1.5692,-1.5696,-1.5705,-1.5708,-1.571,-1.5715,-1.5724,-1.5724,-1.5761,-1.5761,0,0,-1.5632,-1.5624,-1.5646,-1.5651,-1.5643,-1.5654,-1.5656,-1.5694,-1.5697,-1.5708,-1.5711,-1.5716,-1.5724,-1.5725,-1.5761,-1.5761,0,0,0,-1.5625,-1.5623,-1.5634,-1.5649,-1.5656,-1.5655,-1.5657,-1.5695,-1.5699,-1.5711,-1.5717,-1.5725,-1.5725,-1.5761,-1.5761,-1.5756,0,0,0,-1.5624,-1.5618,-1.5633,-1.5629,-1.5655,-1.5676,-1.5657,-1.5697,-1.5701,-1.5717,-1.5725,-1.5726,-1.5761,-1.5761,-1.5756,-1.5756,0,0,0,-1.5616,-1.5617,-1.5622,-1.5628,-1.5644,-1.5675,-1.5682,-1.5698,-1.5704,-1.5724,-1.5726,-1.5761,-1.5761,-1.5756,-1.5756,-1.5762,0,0,0,-1.5606,-1.5618,-1.5622,-1.5638,-1.5644,-1.5672,-1.5682,-1.5703,-1.5719,-1.5725,-1.5761,-1.5761,-1.5756,-1.5756,-1.5762,-1.5766,-1.5767,0,0,-1.5617,-1.562,-1.5629,-1.5634,-1.5658,-1.5666,-1.5691,-1.5714,-1.5724,-1.5749,-1.575,-1.5756,-1.5756,-1.5762,-1.5775,-1.5776,0,0,0,-1.563,-1.5637,-1.5645,-1.566,-1.5677,-1.5692,-1.5712,-1.5721,-1.5741,-1.5735,-1.5761,-1.5761,-1.5765,-1.5767,-1.5768,-1.5772,-1.5762,-1.5762,-1.5762,-1.5634,-1.5645,-1.5662,-1.5677,-1.5691,-1.5711,-1.5724,-1.5739,-1.5747,-1.5753,-1.576,-1.5767,-1.5769,-1.577,-1.5774,-1.5764,-1.5764,-1.5764,-1.5764,-1.5651,-1.5662,-1.5671,-1.569,-1.5702,-1.5719,-1.5739,-1.5744,-1.5762,-1.5763,-1.5767,-1.5766,-1.577,-1.5774,-1.5764,-1.5764,-1.5764,-1.5764,-1.5764,-1.5654,-1.5661,-1.567,-1.5691,-1.5707,-1.5723,-1.5738,-1.5749,-1.576,-1.5764,-1.5772,-1.5772,-1.5773,-1.5767,-1.5767,-1.5767,-1.5767,-1.5767,-1.5767,-1.5653,-1.5664,-1.5675,-1.5694,-1.5704,-1.5719,-1.5739,-1.5749,-1.5764,-1.577,-1.5771,-1.5778,-1.5768,-1.5765,-1.5768,-1.5768,-1.5768,-1.5767,-1.5767,-1.5665,-1.5664,-1.5681,-1.5691,-1.5713,-1.5727,-1.5741,-1.5761,-1.5772,-1.5779,-1.5786,-1.5777,-1.578,-1.578,-1.5777,-1.5783,-1.5783,-1.5783,-1.5783,-1.5667,-1.5669,-1.5689,-1.5704,-1.5721,-1.5734,-1.5754,-1.577,-1.5786,-1.5793,-1.5794,-1.5792,-1.5791,-1.5795,-1.5795,-1.5792,-1.5802,-1.5802,-1.5802,-1.5674,-1.5679,-1.5693,-1.5708,-1.5726,-1.5741,-1.576,-1.5778,-1.5796,-1.5803,-1.5799,-1.5798,-1.5795,-1.5793,-1.5799,-1.5798,-1.5794,0,0]}]]